[Date Prev][Date Next][Thread Prev][Thread Next][Date Index][Thread Index]

[jamsat-news:979] jas2info #107



=========================   最新情報   ==============================

        Last updated :Sat.5-Dec.-98 16:30 (JST) #107

====================================================================
   
     衛星情報 FOシリーズの軌道要素、テレメトリ、QSOの状況等をま
   とめてみました.

  1)FO−29(ふじ3号)は12月5日 (土)の15:24(JST)の
     パスではJAアナログモードで運用されており、力強いRS59+で
     安定したテレメトリを送信しておりました.
         
 ■ 軌道要素1:「jamsatーkeps:837」より
                 SB KEPS @ AMSAT  $ORB98338.N
                 2Line Orbital Elements 98338.AMSAT

  HR AMSAT ORBITAL ELEMENTS FOR AMATEUR SATELLITES IN NASA FORMAT
  FROM WA5QGD FORT WORTH,TX December 4, 1998
  SEND SUBSCRIBE/UNSUBSCRIBE TO majordomo@amsat.org ONLY
  BID: ORB98338.N

  DECODE 2-LINE ELSETS WITH THE FOLLOWING KEY:
  1 AAAAAU 00  0  0 BBBBB.BBBBBBBB  .CCCCCCCC  00000-0  00000-0 0  DDDZ
  2 AAAAA EEE.EEEE FFF.FFFF GGGGGGG HHH.HHHH III.IIII JJ.JJJJJJJJKKKKKZ
  KEY: A-CATALOGNUM B-EPOCHTIME C-DECAY D-ELSETNUM E-INCLINATION F-RAAN
  G-ECCENTRICITY H-ARGPERIGEE I-MNANOM J-MNMOTION K-ORBITNUM Z-CHECKSUM

  TO ALL RADIO AMATEURS BT

  FO-29
  1 24278U 96046B   98336.89951705  .00000009  00000-0  47502-4 0 02333
  2 24278 098.5347 309.5530 0350899 242.5427 113.9636 13.52653984113275

 ■ 軌道要素2:「jamsatーkeps:838」より
                 SB KEPS @ AMSAT  $ORB98338.O
                 Orbital Elements  98338.OSCAR

  HR AMSAT ORBITAL ELEMENTS FOR OSCAR SATELLITES
  FROM WA5QGD FORT WORTH,TX December 4, 1998
  SEND SUBSCRIBE/UNSUBSCRIBE TO majordomo@amsat.org ONLY
  BID: ORB98338.O
  TO ALL RADIO AMATEURS BT

  Satellite: FO-29
  Catalog number: 24278
  Epoch time:      98336.89951705
  Element set:    0233
  Inclination:      098.5347 deg
  RA of node:       309.5530 deg
  Eccentricity:    0.0350899
  Arg of perigee:   242.5427 deg
  Mean anomaly:     113.9636 deg
  Mean motion:   13.52653984 rev/day
  Decay rate:        9.0e-08 rev/day^2
  Epoch rev:           11327
  Checksum:              346
 -----------------------------------------------------------
  2)FO−29(ふじ3号)の 12月5日(土)はJAアナログモードで 
     運用され、ビーコン波にのったテレメトリの一部分は次のようになっていました.
  					
  AS11360C1    5Dec98
  JST  15:24 - 15:44
                                                              
  HI HI AE C7 88 55 00 AC 47 79 09 04 87 84 6F 61 93 91 B0 6B 91 94 93 8D 8F
  HI HI AE C7 88 55 00 AC 47 79 09 04 81 81 78 60 94 92 B0 66 91 94 93 8D 8F 
  HI HI AE C7 88 55 00 AC 47 79 09 04 7F 81 79 60 94 92 B0 79 91 94 93 8C 8F 
  HI HI AE C7 88 55 00 AC 47 79 09 04 7E 82 79 60 94 92 B0 62 91 93 93 8C 8F 
  HI HI AE C7 88 55 00 AC 47 79 09 04 7D 82 79 60 94 92 B0 6F 91 93 93 8C 8F
  HI HI AE C7 88 55 00 AC 47 79 09 04 7D 82 79 60 94 92 B0 78 90 93 92 8C 8F 
  HI HI AE C7 88 55 00 AC 46 79 09 04 7E 82 79 60 94 92 B0 77 91 93 92 8B 8F 
  HI HI AE C7 88 55 09 AC 47 79 09 04 7F 82 78 60 94 92 B0 70 91 93 92 8B 8F 
  HI HI AE C7 88 55 00 AC 47 79 09 04 80 80 74 60 94 92 B0 65 90 93 92 8B 8F 
  HI HI AE C7 88 55 00 AC 47 79 09 04 82 7E 71 60 94 92 B0 85 90 93 92 8B 8F 
  HI HI AE C7 88 55 00 AC 47 79 09 04 85 78 6A 61 94 92 B0 70 90 93 92 8B 8F 
  HI HI AE C7 88 55 00 AC 47 79 09 04 87 73 67 61 94 92 B0 71 90 93 92 8B 8F 
  HI HI AE C7 88 55 00 AC 47 79 09 04 87 6E 64 61 95 92 B0 6A 90 93 92 8B 8F 
  HI HI AE C7 88 55 00 AC 47 79 09 04 86 66 64 61 95 92 B0 78 8F 93 92 8B 8E
  HI HI AE C7 88 55 00 AC 47 79 09 04 86 60 64 61 95 92 BO 7  8F 93 92 8B 8E 
  HI HI AE C7 88 55 00 AB 47 79 09 04 86 59 62 61 95 92 B0 7B 8F 93 92 8B 8E 
  HI HI AE C7 86 55 00 AC 47 79 08 04 84 51 61 60 95 92 B0 97 8F 93 92 8B 8E 
  HI HI AE C7 88 55 00 AC 47 79 09 04 81 49 60 61 95 93 AF 72 8F 93 92 8B 8E 
  
 3) JAアナログCWテレメトリの換算値例
	FO−29(ふじ3号)	
       (上記テレメトリの最初の一行を換算)
  
  テレメトリ   内   容          換算値  単位
  3C	磁気センサーZ軸	 =	66176.5	nT
  3D	磁気センサX軸	 =	64705.9	nT
  4A	太陽電池発生電流	 =	 1088.2	mA
  4B	B充放電電流	 =	  -98.8	mA
  4C	B端子電圧	 =	   15.8	V
  4D	B中間端子電圧	 =	    7.0	V
  5A	バス電圧 	 =	   17.3	V
  5B	JTA送信電力	 =	  597.4	mW
  5C 	構体温度1	 =	   25.6	℃
  5D	構体温度2	 =	   24.4	℃
  6A	構体温度3	 =	   24.8	℃
  6B	構体温度4	 =	   27.1	℃
  6C	Bセル温度	 =	   26.3	℃
  	   
   *計算処理は OFFICE 97 を使用.
   
 ==========================================================================  
  4)FO−20(ふじ 2号)のCWテレメトリは11月27日(金)AM9:22
     (JST)のパスでも切れ目の無い長い連続音になっいました.
 
---------------------------------------------------------------------------
 ■ 軌道要素1 :出典は「ふじ3号」に同じ.
 
  FO-20
  1 20480U 90013C   98337.09672574 -.00000063  00000-0 -61616-4 0 01039
  2 20480 099.0470 203.9699 0540010 248.8748 105.3833 12.83247800413189

  ■ 軌道要素2 :出典は「ふじ3号」に同じ.  
               
  Satellite: FO-20
  Catalog number: 20480
  Epoch time:      98337.09672574
  Element set:    0103
  Inclination:      099.0470 deg
  RA of node:       203.9699 deg
  Eccentricity:    0.0540010
  Arg of perigee:   248.8748 deg
  Mean anomaly:     105.3833 deg
  Mean motion:   12.83247800 rev/day
  Decay rate:       -6.3e-07 rev/day^2
  Epoch rev:           41318
  Checksum:              304
    
  =========================   JARL運用情報   =========================

 5)JARL のホームページに運用の予定が記載されていましたのでご紹介します.

        ■ ふじ3号/FO−29 ■  
  QTC ! 
  12月から「ふじ3号」の日陰率は徐々に増え12月末には20%となります.
  8月の日陰期間にコマンドやプログラムの実行率が上がりました。12月以降の日陰
  期間に入ればデジタル系の運用が行えると考えられます。1年ぶりとなりますがデジ
  トーカーの運用も計画していますのでご期待下さい。

 連絡先 : lab@jarl.or.jp

 以後の運用に付きましては12月15日18時頃にお知らせいたします。
         
        ■ ふじ2号/FO−20 ■      
            「ふじ2号」 現況                                                                                               
   JAS-1b/FO-20(ふじ2号)の不具合発生について
    JAS-1b(ふじ2号)のCWテレメトリ信号に,1997年10月12日12時
 (JST)の日本上空通過時,3桁の数字が繰り返されるはずが3個の長音の
  繰り返しとなっているという異常が発見されました。この不具合は次の通過時
  からは回復していましたが13日15時20分の通過時に再び観測されました。
  衛星のアナログ系中継モード動作は異常が無く,正常時のテレメトリ内容からは
  衛星の動作に異常は認められません。従って,直ちに衛星のミッションに影響す
  ることは無いと予想されますので,当面はアナログ系中継モードを継続します。
  衛星は既に打ち上げてから7年8ヶ月を経ておりますので,今後は監視を強化す
  る予定です。アマチュア各位のレポートをお待ちします.   
  
  以上  http://www.jarl.or.jp/Japanese/3_Fuji/jr1nvu.htm  より.
                                           
   =============   JAS-2 (ふじ3号)と現在までの情報   ===========  
  A.電話によるふじ3号の運用情報
      社団法人日本アマチュア連盟によるサービス
           TEL .   03− 3942 − 1000
  B.アマチュア無線FAXサービス
      JARLによるふじ3号の軌道情報(オービットカレンダー)
         FAX No.  03− 3233 −0055
  C.WWWブラウザで情報を簡単に見れる人のためにJAS−2
     ふじ3号の衛星としての運用されるまでの名前)の概要、打ち上げ
     までの状況、運用中における状況を説明したホームページを紹介し
     ておきます.
    1)社団法人日本アマチュア無線連盟(JARL)のホームページ

          http://www.jarl.or.jp/Japanese/3_Fuji/jr1nvu.htm
 
    2)宇宙開発事業団(NASDA)ホームページ 
          http://www.nasda.go.jp/
         打上げ衛星 :地球観測プラットフォーム技術衛星(ADEOS) 
                       アマチュア衛星3号(JAS-2)
          http://yyy.tksc.nasda.go.jp/Home/Press/Press-j/jas-2_j.html        

  D.JAMSATによる軌道情報の活用
        JAMSATのホームページまたはjamsat−kepsの軌道要素より
      衛星の軌道情報を得る.
     JAMSATホームページ
               URL    http://www.jamsat.or.jp
       上記ホームページでは各地で行われるアマチュア通信衛星に関する
      ミューティングのお知らせや世界のアマチュア衛星に関する情報が
      満載されています.
   
 =========================================================================
       JAMSATのメンバーのご協力によりJH6MME(高山 秀造)が
    執筆・編集を担当しております.ご指摘の意見、疑問やこのようにしたら
    というアイデアがありましたら小さなことでもかまいませんので気軽に下
    記アドレスまでご連絡ください.jamsat−newsからjas2
    infoへの転載をJH4PHW局坂井さんに担当して頂いております.
                    Eーmail : jh6mme@jamsat.or.jp : jh4phw@jamsat.or.jp
 ===============================   END  ===============================